www.pogodaiklimat.ru

Погода и климат >> Архив погоды >> Россия >> Красноярский край >> Щетинкино


ПОГОДА в Щетинкино

  • Прогноз погоды в Щетинкино
  • Монитор погоды в Щетинкино

АРХИВ ПОГОДЫ в Щетинкино

Время (UTC), дата Ветер
(напр.,м/с)
 
Видим.   Явления Облачность Т
(С)
Тd
(С)
f
(%)
Тe
(С)
Тes
(С)
Комфортность P
(гПа)
Po
(гПа)
Тmin
(С)
Tmax
(С)
R
(мм)
R24
(мм)
S
(см)
03 13.03 ЮВ 3 4000 м слаб. ливневой снег 10/10 600 м
[Cb cap]
-2.2 -3.1 94 -7 -7 1031.1 932.7
06 13.03 Ю 3 4000 м слаб. ливневой снег 10/10 600 м
[Cb cap]
-0.4 -2.2 88 -5 -5 1030.6 932.9
09 13.03 Ю 3 50 км {ливн. осадки} 10/10 600 м
[Cb cap]
+0.6 -1.7 85 -4 -4 1029.2 932.0
12 13.03 ЮВ 1 50 км {ливн. осадки} 8/3 600 м
[Sc diur, vesp Ac As]
0.0 -2.7 82 -2 -2 1028.8 931.4 +0.8 2
15 13.03 ЮВ 2 н/о ясно -1.6 -2.8 92 -6 -6 1028.5 930.5
18 13.03 ЮВ 2 н/о ясно -5.8 -7.3 89 -10 -10 1029.0 929.5
21 13.03 ЮВ 3 н/о ясно -2.6 -4.2 89 -8 -8 1027.0 928.9
00 14.03 Ю 3 50 км 10/0 2000 м
[Ac und]
-1.0 -3.6 82 -6 -6 1026.8 929.3 -5.8 2 121
03 14.03 Ю 3 50 км 10/0
[Ac und]
-0.8 -3.3 83 -6 -5 1028.3 930.6
06 14.03 Ю 4 4000 м слаб. снег 10/10 600 м
[Sc]
+0.2 -4.2 72 -5 -5 1028.1 930.7
09 14.03 Ю 4 4000 м слаб. ливневой снег 10/10 600 м
[Cb cap]
-0.7 -1.9 92 -6 -6 1028.6 930.9
12 14.03 ЮВ 3 50 км {ливн. осадки, снег} 10/10 600 м
[Cb cap]
-0.7 -2.2 90 -6 -6 1029.0 931.3 +0.2 2
15 14.03 ЮВ 2 н/о 9/9 600 м
[Cb cap]
-1.5 -3.0 89 -5 -5 1029.6 931.5
18 14.03 ЮВ 1 н/о 9/9 600 м
[Cb cap]
-3.3 -4.7 90 -6 -6 1029.4 930.8
21 14.03 штиль 0 н/о 10/10 600 м
[Cb cap]
-4.1 -5.1 93 -5 -5 1029.7 930.0
00 15.03 штиль 0 50 км 6/0
[Ci fib]
-6.8 -8.0 91 -8 -8 1028.9 929.0 -7.5 122
03 15.03 ЮВ 1 50 км 8/0
[Ci fib]
-3.0 -5.0 86 -5 -1 1026.2 928.0
06 15.03 Ю 2 50 км 6/0
[Ci fib]
+7.2 -3.7 46 +6 +12 1021.0 926.6
09 15.03 ЮВ 3 50 км 6/0
[Ci fib]
+8.7 -7.6 31 +7 +9 1018.4 924.7
12 15.03 штиль 0 50 км 4/0
[Ci fib]
+1.8 -4.7 62 +1 +1 1019.7 923.7 +9.4
15 15.03 штиль 0 н/о ясно -3.6 -7.2 76 -4 -4 1021.3 923.4
18 15.03 штиль 0 н/о ясно -7.2 -8.9 88 -8 -8 1022.3 922.9
21 15.03 штиль 0 н/о ясно -10.4 -11.7 90 -11 -11 1022.9 922.3
00 16.03 штиль 0 50 км ясно -12.1 -13.4 90 -12 -12 1023.2 921.9 -12.1 118
03 16.03 штиль 0 50 км ясно -1.0 -7.7 60 -2 +4 1018.4 921.5 -12.2
06 16.03 Ю 5 50 км 8/0
[Ci fib]
+7.1 -8.3 32 +4 +7 1014.0 920.3
09 16.03 Ю 3 50 км 8/0
[Ci sp]
+8.7 -9.2 27 +7 +9 1011.6 918.5
12 16.03 штиль 0 50 км 9/0 2000 м
[Ac trans]
+3.3 -4.9 55 +3 +3 1012.6 917.7 +8.8
15 16.03 ЮВ 1 н/о 8/0
[Ac trans]
+0.3 -3.4 76 -1 -1 1013.0 917.2
18 16.03 Ю 2
{13}
н/о сильн. ливневой дождь 6/6 600 м
[Cb cap]
+0.3 -1.7 86 -3 -3 1015.0 919.0
21 16.03 Ю 2 н/о {ливн. осадки} 10/10 600 м
[Cb cap]
-0.4 -1.9 90 -4 -4 1015.7 919.4
00 17.03 Ю 2 50 км 8/6 600 м
[Cb cap Ac trans]
-3.6 -5.4 87 -8 -8 1017.6 920.0 -3.6 1 116
03 17.03 Ю 3 50 км 8/5 600 м
[Cb cap Ac trans Ci fib]
-3.2 -8.3 68 -8 -7 1018.2 920.5 -5.2
06 17.03 З 3 50 км 9/9 600 м
[Cb cap]
-2.8 -10.3 56 -7 -7 1017.3 919.9
09 17.03 З 3 50 км {ливн. осадки} 8/8 600 м
[Cb cap]
-3.5 -9.1 65 -8 -8 1017.5 919.9
12 17.03 СЗ 2 50 км {ливн. осадки} 8/4 600 м
[Cb cap Ac trans]
-4.8 -9.6 69 -9 -9 1019.0 920.7 -2.8 0.0
15 17.03 С 2 н/о 9/6 600 м
[Cb cap Ac trans]
-7.6 -9.8 84 -12 -12 1021.3 921.9
18 17.03 СЗ 1 н/о 6/0
[Ac trans]
-10.2 -12.2 85 -12 -12 1023.5 922.9
21 17.03 С 2 н/о 8/0
[Ac trans]
-11.0 -13.0 85 -16 -16 1025.2 924.2
00 18.03 С 3 4000 м слаб. ливневой снег 9/9 600 м
[Cb cap]
-11.2 -13.2 85 -17 -17 1027.5 926.2 -12.4 0.0 116
03 18.03 СЗ 2 4000 м слаб. ливневой снег 8/8 600 м
[Cb cap]
-9.0 -12.9 73 -13 -13 1028.9 928.3
06 18.03 СЗ 3 4000 м слаб. ливневой снег 10/10 600 м
[Cb cap]
-6.4 -10.0 76 -12 -12 1029.0 929.3
09 18.03 СЗ 4 50 км в посл. час ливневой снег 9/9 600 м
[Cb cap]
-5.0 -9.9 68 -11 -11 1029.7 929.9
12 18.03 СЗ 3 50 км {ливн. осадки} 4/4 600 м
[Cb cap]
-7.0 -10.3 77 -13 -13 1031.5 931.3 -5.0 0.2
15 18.03 штиль 0 н/о ясно -12.0 -13.3 90 -12 -12 1034.9 932.5
18 18.03 штиль 0 н/о ясно -14.8 -16.1 90 -15 -15 1036.4 932.8
21 18.03 штиль 0 н/о ясно -15.0 -17.0 85 -15 -15 1036.4 932.8
00 19.03 штиль 0 50 км 4/0 2000 м
[Ac lent]
-16.2 -18.1 85 -16 -16 1036.8 932.8 -16.4 116
03 19.03 Ю 2 4000 м слаб. ливневой снег 6/6 600 м
[Cb cap]
-7.8 -11.4 75 -12 -10 1033.4 932.7
06 19.03 Ю 3 4000 м слаб. ливневой снег 10/10 600 м
[Cb cap]
-6.2 -10.2 73 -12 -12 1031.8 931.8
09 19.03 Ю 1 4000 м слаб. ливневой снег 10/10 600 м
[Cb cap]
-5.4 -5.6 98 -8 -8 1030.1 930.5
12 19.03 ЮЗ 1 50 км {ливн. осадки} 9/9 600 м
[Cb cap]
-6.4 -10.5 73 -9 -9 1030.1 930.3 -5.4 0.3
15 19.03 штиль 0 н/о 10/0
[Cs]
-9.8 -12.4 81 -10 -10 1032.0 930.7
18 19.03 штиль 0 н/о 10/0 2000 м
[Cs]
-12.3 -14.1 86 -12 -12 1034.4 931.2
21 19.03 штиль 0 н/о 10/0
[Cs]
-15.8 -17.6 86 -16 -16 1035.2 931.4
00 20.03 штиль 0 4000 м слаб. снег 10/0 2000 м
[As op]
-14.8 -16.8 85 -15 -15 1035.6 932.2 -16.2 0.0 117

 

Местоположение метеостанции Щетинкино (Красноярский край, Россия): широта 54.53 долгота 93.43 высота над уровнем моря 804 м.

В архиве по умолчанию представлена погода в Щетинкино за последнюю неделю. Архивные данные за месяц целиком и за предыдущие месяцы, начиная с января 2011 года, Вы можете получить, выбрав интересующий диапазон дат из раскрывающегося списка и нажав кнопку "Ввод!".


*Определитесь, кто Вы:
робот инопланетянин человек

Внимание! Время в таблицах - всемирное. Для получения местного времени необходимо прибавить поправку, которая равна 7 ч.

Смотрите также архив погоды в соседних городах и на ближайших метеорологических станциях:

Погода в Артемовске (Красноярский край, Россия) (3 км)
Погода в Анастасино (Красноярский край, Россия) (66 км)
Погода в Курагино (Красноярский край, Россия) (85 км)
Погода в Идринском (Красноярский край, Россия) (86 км)
Погода в Казыре (Красноярский край, Россия) (106 км)
Погода в Теси (Красноярский край, Россия) (109 км)
Погода в Каратузском (Красноярский край, Россия) (110 км)
Погода в Агинском (Красноярский край, Россия) (123 км)
Погода в Лебяжьем (Красноярский край, Россия) (125 км)
Погода в Шалинском (Красноярский край, Россия) (134 км)

Пояснения к столбцам:

Ветер - указаны скорость ветра в м/с - средняя за 10 мин, порывы в срок и между сроками (в фигурных скобках) и направление, откуда дует ветер: С - северный, СВ - северо-восточный, В - восточный, ЮВ - юго-восточный, Ю - южный, ЮЗ - юго-западный, З - западный, СЗ - северо-западный.
Видимость - горизонтальная дальность видимости в метрах или километрах. При видимости от 1 до 10 км при отсутствии осадков обычно наблюдается дымка, при ухудшении видимости до 1 км и менее - туман. В сухую погоду видимость может ухудшаться дымом, пылью или мглою.
Явления - указаны атмосферные явления, наблюдавшиеся в срок или в последний час перед сроком; фигурными скобками обозначены явления, наблюдавшиеся между сроками (за 1-3 часа до срока); квадратными скобками обозначены град или гололедные отложения с указанием их диаметра в мм.
Облачность - указаны через наклонную черту общая и нижняя облачность в баллах и высота нижней границы облаков в метрах; квадратными скобками обозначены формы облаков: Ci - перистые, Cs - перисто-слоистые, Cc - перисто-кучевые, Ac - высококучевые, As - высокослоистые, Sc - слоисто-кучевые, Ns - слоисто-дождевые, Cu - кучевые, Cb - кучево-дождевые. Подробнее классификацию облаков см. в Атласе облаков (PDF).
T - Температура воздуха - температура, измеренная на высоте 2 м над землей.
Td - Температура точки росы - температура, при понижении до которой содержащийся в воздухе водяной пар достигнет насыщения.
f - Относительная влажность воздуха - влажноcть воздуха, измеренная на высоте 2 м над землей.
Te - Эффективная температура - температура, которую ощущает одетый по сезону человек в тени. Характеристика душности погоды. При расчете учитывается влияние влажности воздуха и скорости ветра на теплоощущения человека.
Tes - Эффективная температура на солнце - температура, которую ощущает человек, с поправкой на солнечный нагрев. Характеристика знойности погоды. Зависит от высоты солнца над горизонтом, облачности и скорости ветра. Ночью, в пасмурную погоду, а также при ветре 12 м/с и более поправка равна нулю.
P - Атмосферное давление - приведенное к уровню моря атмосферное давление.
Po - Атмосферное давление - измеренное на уровне метеостанции атмосферное давление.
Tmin - Минимальная температура - минимум температуры воздуха на высоте 2 м над землей.
Tmax - Максимальная температура - максимум температуры воздуха на высоте 2 м над землей.
R - Количество осадков - Количество выпавших осадков за период времени, мм. При наведении курсора мыши на число - период времени, за который выпало указанное количество осадков.
R24 - Количество осадков - Количество выпавших осадков за 24 часа, мм.
S - Снежный покров - Высота снежного покрова, см. При наведении курсора мыши на число - состояние снежного покрова и степень покрытия местности в баллах.